Year,Month,Day,Hour,Minute,Value (Times are PST for temperature in C)
2015,05,06,00,00,8.60
2015,05,06,00,01,8.60
2015,05,06,00,02,8.50
2015,05,06,00,03,8.50
2015,05,06,00,04,8.50
2015,05,06,00,05,8.50
2015,05,06,00,06,8.50
2015,05,06,00,07,8.50
2015,05,06,00,08,8.50
2015,05,06,00,09,8.50
2015,05,06,00,10,8.50
2015,05,06,00,11,8.50
2015,05,06,00,12,8.50
2015,05,06,00,13,8.50
2015,05,06,00,14,8.50
2015,05,06,00,15,8.50
2015,05,06,00,16,8.40
2015,05,06,00,17,8.40
2015,05,06,00,18,8.40
2015,05,06,00,19,8.40
2015,05,06,00,20,8.40
2015,05,06,00,21,8.40
2015,05,06,00,22,8.40
2015,05,06,00,23,8.30
2015,05,06,00,24,8.30
2015,05,06,00,25,8.30
2015,05,06,00,26,8.30
2015,05,06,00,27,8.30
2015,05,06,00,28,8.30
2015,05,06,00,29,8.30
2015,05,06,00,30,8.30
2015,05,06,00,31,8.30
2015,05,06,00,32,8.30
2015,05,06,00,33,8.30
2015,05,06,00,34,8.30
2015,05,06,00,35,8.20
2015,05,06,00,36,8.20
2015,05,06,00,37,8.20
2015,05,06,00,38,8.20
2015,05,06,00,39,8.20
2015,05,06,00,40,8.20
2015,05,06,00,41,8.20
2015,05,06,00,42,8.20
2015,05,06,00,43,8.20
2015,05,06,00,44,8.20
2015,05,06,00,45,8.20
2015,05,06,00,46,8.20
2015,05,06,00,47,8.20
2015,05,06,00,48,8.20
2015,05,06,00,49,8.20
2015,05,06,00,50,8.20
2015,05,06,00,51,8.20
2015,05,06,00,52,8.20
2015,05,06,00,53,8.20
2015,05,06,00,54,8.20
2015,05,06,00,55,8.20
2015,05,06,00,56,8.10
2015,05,06,00,57,8.10
2015,05,06,00,58,8.10
2015,05,06,00,59,8.00
2015,05,06,01,00,8.00
2015,05,06,01,01,7.90
2015,05,06,01,02,7.90
2015,05,06,01,03,7.80
2015,05,06,01,04,7.80
2015,05,06,01,05,7.80
2015,05,06,01,06,7.80
2015,05,06,01,07,7.80
2015,05,06,01,08,7.80
2015,05,06,01,09,7.80
2015,05,06,01,10,7.80
2015,05,06,01,11,7.80
2015,05,06,01,12,7.70
2015,05,06,01,13,7.70
2015,05,06,01,14,7.70
2015,05,06,01,15,7.70
2015,05,06,01,16,7.70
2015,05,06,01,17,7.70
2015,05,06,01,18,7.70
2015,05,06,01,19,7.70
2015,05,06,01,20,7.60
2015,05,06,01,21,7.60
2015,05,06,01,22,7.60
2015,05,06,01,23,7.60
2015,05,06,01,24,7.60
2015,05,06,01,25,7.60
2015,05,06,01,26,7.70
2015,05,06,01,27,7.70
2015,05,06,01,28,7.70
2015,05,06,01,29,7.70
2015,05,06,01,30,7.70
2015,05,06,01,31,7.70
2015,05,06,01,32,7.60
2015,05,06,01,33,7.60
2015,05,06,01,34,7.60
2015,05,06,01,35,7.60
2015,05,06,01,36,7.60
2015,05,06,01,37,7.60
2015,05,06,01,38,7.60
2015,05,06,01,39,7.50
2015,05,06,01,40,7.50
2015,05,06,01,41,7.50
2015,05,06,01,42,7.50
2015,05,06,01,43,7.60
2015,05,06,01,44,7.60
2015,05,06,01,45,7.60
2015,05,06,01,46,7.60
2015,05,06,01,47,7.60
2015,05,06,01,48,7.60
2015,05,06,01,49,7.60
2015,05,06,01,50,7.60
2015,05,06,01,51,7.60
2015,05,06,01,52,7.60
2015,05,06,01,53,7.60
2015,05,06,01,54,7.60
2015,05,06,01,55,7.60
2015,05,06,01,56,7.60
2015,05,06,01,57,7.60
2015,05,06,01,58,7.60
2015,05,06,01,59,7.60
2015,05,06,02,00,7.50
2015,05,06,02,01,7.50
2015,05,06,02,02,7.50
2015,05,06,02,03,7.50
2015,05,06,02,04,7.50
2015,05,06,02,05,7.50
2015,05,06,02,06,7.40
2015,05,06,02,07,7.40
2015,05,06,02,08,7.40
2015,05,06,02,09,7.30
2015,05,06,02,10,7.30
2015,05,06,02,11,7.30
2015,05,06,02,12,7.30
2015,05,06,02,13,7.20
2015,05,06,02,14,7.20
2015,05,06,02,15,7.20
2015,05,06,02,16,7.10
2015,05,06,02,17,7.10
2015,05,06,02,18,7.10
2015,05,06,02,19,7.10
2015,05,06,02,20,7.10
2015,05,06,02,21,7.00
2015,05,06,02,22,7.00
2015,05,06,02,23,7.00
2015,05,06,02,24,7.00
2015,05,06,02,25,6.90
2015,05,06,02,26,6.90
2015,05,06,02,27,6.90
2015,05,06,02,28,6.80
2015,05,06,02,29,6.80
2015,05,06,02,30,6.80
2015,05,06,02,31,6.80
2015,05,06,02,32,6.80
2015,05,06,02,33,6.70
2015,05,06,02,34,6.70
2015,05,06,02,35,6.70
2015,05,06,02,36,6.70
2015,05,06,02,37,6.80
2015,05,06,02,38,6.80
2015,05,06,02,39,6.80
2015,05,06,02,40,6.80
2015,05,06,02,41,6.90
2015,05,06,02,42,7.00
2015,05,06,02,43,7.00
2015,05,06,02,44,7.00
2015,05,06,02,45,7.10
2015,05,06,02,46,7.10
2015,05,06,02,47,7.10
2015,05,06,02,48,7.10
2015,05,06,02,49,7.10
2015,05,06,02,50,7.10
2015,05,06,02,51,7.10
2015,05,06,02,52,7.20
2015,05,06,02,53,7.20
2015,05,06,02,54,7.20
2015,05,06,02,55,7.20
2015,05,06,02,56,7.20
2015,05,06,02,57,7.20
2015,05,06,02,58,7.20
2015,05,06,02,59,7.20
2015,05,06,03,00,7.10
2015,05,06,03,01,7.10
2015,05,06,03,02,7.10
2015,05,06,03,03,7.00
2015,05,06,03,04,7.00
2015,05,06,03,05,6.90
2015,05,06,03,06,6.90
2015,05,06,03,07,6.80
2015,05,06,03,08,6.80
2015,05,06,03,09,6.80
2015,05,06,03,10,6.70
2015,05,06,03,11,6.70
2015,05,06,03,12,6.70
2015,05,06,03,13,6.60
2015,05,06,03,14,6.60
2015,05,06,03,15,6.60
2015,05,06,03,16,6.60
2015,05,06,03,17,6.60
2015,05,06,03,18,6.60
2015,05,06,03,19,6.50
2015,05,06,03,20,6.40
2015,05,06,03,21,6.40
2015,05,06,03,22,6.40
2015,05,06,03,23,6.40
2015,05,06,03,24,6.30
2015,05,06,03,25,6.30
2015,05,06,03,26,6.30
2015,05,06,03,27,6.30
2015,05,06,03,28,6.30
2015,05,06,03,29,6.30
2015,05,06,03,30,6.20
2015,05,06,03,31,6.20
2015,05,06,03,32,6.20
2015,05,06,03,33,6.20
2015,05,06,03,34,6.20
2015,05,06,03,35,6.20
2015,05,06,03,36,6.20
2015,05,06,03,37,6.20
2015,05,06,03,38,6.20
2015,05,06,03,39,6.10
2015,05,06,03,40,6.10
2015,05,06,03,41,6.10
2015,05,06,03,42,6.10
2015,05,06,03,43,6.10
2015,05,06,03,44,6.00
2015,05,06,03,45,6.00
2015,05,06,03,46,6.00
2015,05,06,03,47,6.00
2015,05,06,03,48,6.00
2015,05,06,03,49,5.90
2015,05,06,03,50,5.90
2015,05,06,03,51,5.90
2015,05,06,03,52,5.90
2015,05,06,03,53,5.80
2015,05,06,03,54,5.80
2015,05,06,03,55,5.80
2015,05,06,03,56,5.80
2015,05,06,03,57,5.80
2015,05,06,03,58,5.80
2015,05,06,03,59,5.80
2015,05,06,04,00,5.80
2015,05,06,04,01,5.80
2015,05,06,04,02,5.80
2015,05,06,04,03,5.80
2015,05,06,04,04,5.80
2015,05,06,04,05,5.80
2015,05,06,04,06,5.80
2015,05,06,04,07,5.80
2015,05,06,04,08,5.80
2015,05,06,04,09,5.80
2015,05,06,04,10,5.70
2015,05,06,04,11,5.70
2015,05,06,04,12,5.70
2015,05,06,04,13,5.70
2015,05,06,04,14,5.70
2015,05,06,04,15,5.80
2015,05,06,04,16,5.80
2015,05,06,04,17,5.80
2015,05,06,04,18,5.80
2015,05,06,04,19,5.70
2015,05,06,04,20,5.70
2015,05,06,04,21,5.70
2015,05,06,04,22,5.70
2015,05,06,04,23,5.70
2015,05,06,04,24,5.70
2015,05,06,04,25,5.70
2015,05,06,04,26,5.70
2015,05,06,04,27,5.70
2015,05,06,04,28,5.70
2015,05,06,04,29,5.60
2015,05,06,04,30,5.60
2015,05,06,04,31,5.60
2015,05,06,04,32,5.60
2015,05,06,04,33,5.50
2015,05,06,04,34,5.50
2015,05,06,04,35,5.50
2015,05,06,04,36,5.40
2015,05,06,04,37,5.40
2015,05,06,04,38,5.40
2015,05,06,04,39,5.30
2015,05,06,04,40,5.30
2015,05,06,04,41,5.30
2015,05,06,04,42,5.30
2015,05,06,04,43,5.30
2015,05,06,04,44,5.30
2015,05,06,04,45,5.30
2015,05,06,04,46,5.30
2015,05,06,04,47,5.30
2015,05,06,04,48,5.30
2015,05,06,04,49,5.30
2015,05,06,04,50,5.30
2015,05,06,04,51,5.30
2015,05,06,04,52,5.30
2015,05,06,04,53,5.30
2015,05,06,04,54,5.30
2015,05,06,04,55,5.30
2015,05,06,04,56,5.30
2015,05,06,04,57,5.30
2015,05,06,04,58,5.30
2015,05,06,04,59,5.20
2015,05,06,05,00,5.20
2015,05,06,05,01,5.20
2015,05,06,05,02,5.10
2015,05,06,05,03,5.10
2015,05,06,05,04,5.10
2015,05,06,05,05,5.10
2015,05,06,05,06,5.10
2015,05,06,05,07,5.10
2015,05,06,05,08,5.10
2015,05,06,05,09,5.10
2015,05,06,05,10,5.10
2015,05,06,05,11,5.10
2015,05,06,05,12,5.10
2015,05,06,05,13,5.10
2015,05,06,05,14,5.10
2015,05,06,05,15,5.00
2015,05,06,05,16,4.90
2015,05,06,05,17,4.90
2015,05,06,05,18,4.90
2015,05,06,05,19,4.90
2015,05,06,05,20,4.90
2015,05,06,05,21,4.90
2015,05,06,05,22,4.90
2015,05,06,05,23,4.90
2015,05,06,05,24,4.90
2015,05,06,05,25,4.90
2015,05,06,05,26,4.90
2015,05,06,05,27,4.90
2015,05,06,05,28,4.80
2015,05,06,05,29,4.80
2015,05,06,05,30,4.80
2015,05,06,05,31,4.80
2015,05,06,05,32,4.80
2015,05,06,05,33,4.80
2015,05,06,05,34,4.80
2015,05,06,05,35,4.80
2015,05,06,05,36,4.90
2015,05,06,05,37,4.90
2015,05,06,05,38,4.90
2015,05,06,05,39,4.90
2015,05,06,05,40,4.90
2015,05,06,05,41,4.90
2015,05,06,05,42,4.90
2015,05,06,05,43,4.90
2015,05,06,05,44,4.90
2015,05,06,05,45,4.90
2015,05,06,05,46,4.90
2015,05,06,05,47,4.80
2015,05,06,05,48,4.80
2015,05,06,05,49,4.80
2015,05,06,05,50,4.80
2015,05,06,05,51,4.80
2015,05,06,05,52,4.80
2015,05,06,05,53,4.80
2015,05,06,05,54,4.90
2015,05,06,05,55,4.90
2015,05,06,05,56,4.90
2015,05,06,05,57,4.90
2015,05,06,05,58,4.90
2015,05,06,05,59,4.90
2015,05,06,06,00,4.90
2015,05,06,06,01,4.90
2015,05,06,06,02,4.90
2015,05,06,06,03,5.10
2015,05,06,06,04,5.10
2015,05,06,06,05,5.10
2015,05,06,06,06,5.10
2015,05,06,06,07,5.10
2015,05,06,06,08,5.10
2015,05,06,06,09,5.10
2015,05,06,06,10,5.10
2015,05,06,06,11,5.10
2015,05,06,06,12,5.10
2015,05,06,06,13,5.10
2015,05,06,06,14,5.10
2015,05,06,06,15,5.10
2015,05,06,06,16,5.10
2015,05,06,06,17,5.10
2015,05,06,06,18,5.10
2015,05,06,06,19,5.10
2015,05,06,06,20,5.10
2015,05,06,06,21,5.10
2015,05,06,06,22,5.10
2015,05,06,06,23,5.10
2015,05,06,06,24,5.20
2015,05,06,06,25,5.20
2015,05,06,06,26,5.30
2015,05,06,06,27,5.30
2015,05,06,06,28,5.30
2015,05,06,06,29,5.30
2015,05,06,06,30,5.30
2015,05,06,06,31,5.30
2015,05,06,06,32,5.30
2015,05,06,06,33,5.30
2015,05,06,06,34,5.30
2015,05,06,06,35,5.30
2015,05,06,06,36,5.30
2015,05,06,06,37,5.30
2015,05,06,06,38,5.30
2015,05,06,06,39,5.30
2015,05,06,06,40,5.30
2015,05,06,06,41,5.40
2015,05,06,06,42,5.40
2015,05,06,06,43,5.40
2015,05,06,06,44,5.50
2015,05,06,06,45,5.50
2015,05,06,06,46,5.50
2015,05,06,06,47,5.60
2015,05,06,06,48,5.60
2015,05,06,06,49,5.60
2015,05,06,06,50,5.70
2015,05,06,06,51,5.70
2015,05,06,06,52,5.70
2015,05,06,06,53,5.70
2015,05,06,06,54,5.70
2015,05,06,06,55,5.70
2015,05,06,06,56,5.70
2015,05,06,06,57,5.80
2015,05,06,06,58,5.80
2015,05,06,06,59,5.80
2015,05,06,07,00,5.90
2015,05,06,07,01,5.90
2015,05,06,07,02,5.90
2015,05,06,07,03,5.90
2015,05,06,07,04,5.90
2015,05,06,07,05,6.00
2015,05,06,07,06,6.00
2015,05,06,07,07,6.00
2015,05,06,07,08,6.00
2015,05,06,07,09,6.00
2015,05,06,07,10,6.00
2015,05,06,07,11,6.00
2015,05,06,07,12,6.00
2015,05,06,07,13,6.00
2015,05,06,07,14,6.00
2015,05,06,07,15,6.10
2015,05,06,07,16,6.10
2015,05,06,07,17,6.10
2015,05,06,07,18,6.10
2015,05,06,07,19,6.10
2015,05,06,07,20,6.10
2015,05,06,07,21,6.20
2015,05,06,07,22,6.20
2015,05,06,07,23,6.20
2015,05,06,07,24,6.20
2015,05,06,07,25,6.20
2015,05,06,07,26,6.20
2015,05,06,07,27,6.20
2015,05,06,07,28,6.20
2015,05,06,07,29,6.20
2015,05,06,07,30,6.20
2015,05,06,07,31,6.20
2015,05,06,07,32,6.20
2015,05,06,07,33,6.20
2015,05,06,07,34,6.20
2015,05,06,07,35,6.20
2015,05,06,07,36,6.20
2015,05,06,07,37,6.20
2015,05,06,07,38,6.30
2015,05,06,07,39,6.30
2015,05,06,07,40,6.30
2015,05,06,07,41,6.30
2015,05,06,07,42,6.30
2015,05,06,07,43,6.40
2015,05,06,07,44,6.40
2015,05,06,07,45,6.40
2015,05,06,07,46,6.40
2015,05,06,07,47,6.40
2015,05,06,07,48,6.40
2015,05,06,07,49,6.40
2015,05,06,07,50,6.50
2015,05,06,07,51,6.60
2015,05,06,07,52,6.60
2015,05,06,07,53,6.60
2015,05,06,07,54,6.60
2015,05,06,07,55,6.60
2015,05,06,07,56,6.60
2015,05,06,07,57,6.60
2015,05,06,07,58,6.60
2015,05,06,07,59,6.70
2015,05,06,08,00,6.70
2015,05,06,08,01,6.70
2015,05,06,08,02,6.70
2015,05,06,08,03,6.80
2015,05,06,08,04,6.80
2015,05,06,08,05,6.80
2015,05,06,08,06,6.80
2015,05,06,08,07,6.80
2015,05,06,08,08,6.80
2015,05,06,08,09,6.80
2015,05,06,08,10,6.80
2015,05,06,08,11,6.80
2015,05,06,08,12,6.90
2015,05,06,08,13,6.90
2015,05,06,08,14,6.90
2015,05,06,08,15,6.90
2015,05,06,08,16,7.00
2015,05,06,08,17,7.00
2015,05,06,08,18,7.00
2015,05,06,08,19,7.00
2015,05,06,08,20,7.00
2015,05,06,08,21,7.10
2015,05,06,08,22,7.10
2015,05,06,08,23,7.10
2015,05,06,08,24,7.10
2015,05,06,08,25,7.10
2015,05,06,08,26,7.20
2015,05,06,08,27,7.20
2015,05,06,08,28,7.20
2015,05,06,08,29,7.20
2015,05,06,08,30,7.30
2015,05,06,08,31,7.30
2015,05,06,08,32,7.30
2015,05,06,08,33,7.30
2015,05,06,08,34,7.30
2015,05,06,08,35,7.30
2015,05,06,08,36,7.30
2015,05,06,08,37,7.30
2015,05,06,08,38,7.30
2015,05,06,08,39,7.30
2015,05,06,08,40,7.30
2015,05,06,08,41,7.30
2015,05,06,08,42,7.40
2015,05,06,08,43,7.40
2015,05,06,08,44,7.40
2015,05,06,08,45,7.40
2015,05,06,08,46,7.50
2015,05,06,08,47,7.50
2015,05,06,08,48,7.50
2015,05,06,08,49,7.50
2015,05,06,08,50,7.60
2015,05,06,08,51,7.60
2015,05,06,08,52,7.60
2015,05,06,08,53,7.60
2015,05,06,08,54,7.60
2015,05,06,08,55,7.60
2015,05,06,08,56,7.60
2015,05,06,08,57,7.60
2015,05,06,08,58,7.60
2015,05,06,08,59,7.60
2015,05,06,09,00,7.60
2015,05,06,09,01,7.60
2015,05,06,09,02,7.60
2015,05,06,09,03,7.60
2015,05,06,09,04,7.60
2015,05,06,09,05,7.70
2015,05,06,09,06,7.70
2015,05,06,09,07,7.70
2015,05,06,09,08,7.80
2015,05,06,09,09,7.80
2015,05,06,09,10,7.80
2015,05,06,09,11,7.90
2015,05,06,09,12,7.90
2015,05,06,09,13,8.00
2015,05,06,09,14,8.00
2015,05,06,09,15,8.10
2015,05,06,09,16,8.10
2015,05,06,09,17,8.20
2015,05,06,09,18,8.20
2015,05,06,09,19,8.20
2015,05,06,09,20,8.30
2015,05,06,09,21,8.30
2015,05,06,09,22,8.40
2015,05,06,09,23,8.40
2015,05,06,09,24,8.40
2015,05,06,09,25,8.50
2015,05,06,09,26,8.50
2015,05,06,09,27,8.60
2015,05,06,09,28,8.60
2015,05,06,09,29,8.60
2015,05,06,09,30,8.60
2015,05,06,09,31,8.60
2015,05,06,09,32,8.60
2015,05,06,09,33,8.70
2015,05,06,09,34,8.70
2015,05,06,09,35,8.70
2015,05,06,09,36,8.70
2015,05,06,09,37,8.70
2015,05,06,09,38,8.70
2015,05,06,09,39,8.70
2015,05,06,09,40,8.70
2015,05,06,09,41,8.70
2015,05,06,09,42,8.70
2015,05,06,09,43,8.70
2015,05,06,09,44,8.70
2015,05,06,09,45,8.70
2015,05,06,09,46,8.70
2015,05,06,09,47,8.70
2015,05,06,09,48,8.70
2015,05,06,09,49,8.70
2015,05,06,09,50,8.70
2015,05,06,09,51,8.70
2015,05,06,09,52,8.70
2015,05,06,09,53,8.70
2015,05,06,09,54,8.70
2015,05,06,09,55,8.70
2015,05,06,09,56,8.70
2015,05,06,09,57,8.70
2015,05,06,09,58,8.70
2015,05,06,09,59,8.80
2015,05,06,10,00,8.80
2015,05,06,10,01,8.90
2015,05,06,10,02,8.90
2015,05,06,10,03,8.90
2015,05,06,10,04,8.90
2015,05,06,10,05,8.90
2015,05,06,10,06,9.00
2015,05,06,10,07,9.00
2015,05,06,10,08,9.10
2015,05,06,10,09,9.20
2015,05,06,10,10,9.20
2015,05,06,10,11,9.30
2015,05,06,10,12,9.30
2015,05,06,10,13,9.40
2015,05,06,10,14,9.50
2015,05,06,10,15,9.50
2015,05,06,10,16,9.60
2015,05,06,10,17,9.60
2015,05,06,10,18,9.70
2015,05,06,10,19,9.70
2015,05,06,10,20,9.70
2015,05,06,10,21,9.70
2015,05,06,10,22,9.70
2015,05,06,10,23,9.70
2015,05,06,10,24,9.80
2015,05,06,10,25,9.90
2015,05,06,10,26,10.00
2015,05,06,10,27,10.10
2015,05,06,10,28,10.20
2015,05,06,10,29,10.30
2015,05,06,10,30,10.50
2015,05,06,10,31,10.60
2015,05,06,10,32,10.60
2015,05,06,10,33,10.70
2015,05,06,10,34,10.80
2015,05,06,10,35,10.90
2015,05,06,10,36,10.90
2015,05,06,10,37,11.00
2015,05,06,10,38,11.20
2015,05,06,10,39,11.30
2015,05,06,10,40,11.40
2015,05,06,10,41,11.50
2015,05,06,10,42,11.60
2015,05,06,10,43,11.60
2015,05,06,10,44,11.70
2015,05,06,10,45,11.80
2015,05,06,10,46,11.90
2015,05,06,10,47,12.10
2015,05,06,10,48,12.20
2015,05,06,10,49,12.30
2015,05,06,10,50,12.40
2015,05,06,10,51,12.50
2015,05,06,10,52,12.50
2015,05,06,10,53,12.50
2015,05,06,10,54,12.40
2015,05,06,10,55,12.30
2015,05,06,10,56,12.30
2015,05,06,10,57,12.30
2015,05,06,10,58,12.30
2015,05,06,10,59,12.20
2015,05,06,11,00,12.20
2015,05,06,11,01,12.20
2015,05,06,11,02,12.10
2015,05,06,11,03,12.10
2015,05,06,11,04,12.20
2015,05,06,11,05,12.20
2015,05,06,11,06,12.20
2015,05,06,11,07,12.20
2015,05,06,11,08,12.00
2015,05,06,11,09,11.70
2015,05,06,11,10,11.50
2015,05,06,11,11,11.40
2015,05,06,11,12,11.30
2015,05,06,11,13,11.30
2015,05,06,11,14,11.30
2015,05,06,11,15,11.20
2015,05,06,11,16,11.20
2015,05,06,11,17,11.10
2015,05,06,11,18,10.90
2015,05,06,11,19,10.80
2015,05,06,11,20,10.80
2015,05,06,11,21,10.70
2015,05,06,11,22,10.70
2015,05,06,11,23,10.70
2015,05,06,11,24,10.70
2015,05,06,11,25,10.70
2015,05,06,11,26,10.60
2015,05,06,11,27,10.60
2015,05,06,11,28,10.50
2015,05,06,11,29,10.40
2015,05,06,11,30,10.40
2015,05,06,11,31,10.40
2015,05,06,11,32,10.40
2015,05,06,11,33,10.40
2015,05,06,11,34,10.50
2015,05,06,11,35,10.60
2015,05,06,11,36,10.50
2015,05,06,11,37,10.40
2015,05,06,11,38,10.30
2015,05,06,11,39,10.20
2015,05,06,11,40,10.10
2015,05,06,11,41,10.00
2015,05,06,11,42,9.90
2015,05,06,11,43,9.90
2015,05,06,11,44,9.90
2015,05,06,11,45,9.90
2015,05,06,11,46,9.90
2015,05,06,11,47,9.90
2015,05,06,11,48,9.90
2015,05,06,11,49,9.90
2015,05,06,11,50,9.90
2015,05,06,11,51,10.00
2015,05,06,11,52,10.10
2015,05,06,11,53,10.20
2015,05,06,11,54,10.30
2015,05,06,11,55,10.40
2015,05,06,11,56,10.40
2015,05,06,11,57,10.30
2015,05,06,11,58,10.20
2015,05,06,11,59,10.20
2015,05,06,12,00,10.10
2015,05,06,12,01,10.10
2015,05,06,12,02,10.20
2015,05,06,12,03,10.30
2015,05,06,12,04,10.50
2015,05,06,12,05,10.70
2015,05,06,12,06,10.80
2015,05,06,12,07,10.80
2015,05,06,12,08,10.70
2015,05,06,12,09,10.70
2015,05,06,12,10,10.70
2015,05,06,12,11,10.70
2015,05,06,12,12,10.70
2015,05,06,12,13,10.70
2015,05,06,12,14,10.60
2015,05,06,12,15,10.60
2015,05,06,12,16,10.70
2015,05,06,12,17,10.70
2015,05,06,12,18,10.70
2015,05,06,12,19,10.70
2015,05,06,12,20,10.70
2015,05,06,12,21,10.70
2015,05,06,12,22,10.70
2015,05,06,12,23,10.80
2015,05,06,12,24,10.80
2015,05,06,12,25,10.80
2015,05,06,12,26,10.90
2015,05,06,12,27,10.90
2015,05,06,12,28,10.70
2015,05,06,12,29,10.70
2015,05,06,12,30,10.70
2015,05,06,12,31,10.80
2015,05,06,12,32,10.90
2015,05,06,12,33,10.90
2015,05,06,12,34,10.90
2015,05,06,12,35,10.80
2015,05,06,12,36,10.70
2015,05,06,12,37,10.70
2015,05,06,12,38,10.70
2015,05,06,12,39,10.70
2015,05,06,12,40,10.70
2015,05,06,12,41,10.80
2015,05,06,12,42,10.80
2015,05,06,12,43,10.90
2015,05,06,12,44,11.00
2015,05,06,12,45,11.10
2015,05,06,12,46,11.20
2015,05,06,12,47,11.30
2015,05,06,12,48,11.30
2015,05,06,12,49,11.50
2015,05,06,12,50,11.70
2015,05,06,12,51,11.80
2015,05,06,12,52,11.90
2015,05,06,12,53,12.00
2015,05,06,12,54,11.90
2015,05,06,12,55,11.80
2015,05,06,12,56,11.70
2015,05,06,12,57,11.60
2015,05,06,12,58,11.60
2015,05,06,12,59,11.50
2015,05,06,13,00,11.40
2015,05,06,13,01,11.40
2015,05,06,13,02,11.40
2015,05,06,13,03,11.40
2015,05,06,13,04,11.40
2015,05,06,13,05,11.40
2015,05,06,13,06,11.40
2015,05,06,13,07,11.30
2015,05,06,13,08,11.10
2015,05,06,13,09,11.00
2015,05,06,13,10,10.90
2015,05,06,13,11,10.90
2015,05,06,13,12,10.90
2015,05,06,13,13,10.90
2015,05,06,13,14,10.90
2015,05,06,13,15,10.90
2015,05,06,13,16,10.90
2015,05,06,13,17,10.90
2015,05,06,13,18,10.80
2015,05,06,13,19,10.80
2015,05,06,13,20,10.80
2015,05,06,13,21,10.80
2015,05,06,13,22,10.80
2015,05,06,13,23,10.90
2015,05,06,13,24,10.90
2015,05,06,13,25,10.80
2015,05,06,13,26,10.80
2015,05,06,13,27,10.80
2015,05,06,13,28,10.80
2015,05,06,13,29,10.90
2015,05,06,13,30,10.90
2015,05,06,13,31,11.00
2015,05,06,13,32,11.20
2015,05,06,13,33,11.30
2015,05,06,13,34,11.40
2015,05,06,13,35,11.30
2015,05,06,13,36,11.40
2015,05,06,13,37,11.40
2015,05,06,13,38,11.40
2015,05,06,13,39,11.40
2015,05,06,13,40,11.40
2015,05,06,13,41,11.50
2015,05,06,13,42,11.60
2015,05,06,13,43,11.60
2015,05,06,13,44,11.60
2015,05,06,13,45,11.40
2015,05,06,13,46,11.40
2015,05,06,13,47,11.40
2015,05,06,13,48,11.30
2015,05,06,13,49,11.10
2015,05,06,13,50,11.00
2015,05,06,13,51,11.00
2015,05,06,13,52,11.10
2015,05,06,13,53,11.10
2015,05,06,13,54,11.30
2015,05,06,13,55,11.40
2015,05,06,13,56,11.40
2015,05,06,13,57,11.60
2015,05,06,13,58,11.60
2015,05,06,13,59,11.60
2015,05,06,14,00,11.70
2015,05,06,14,01,11.80
2015,05,06,14,02,11.80
2015,05,06,14,03,12.00
2015,05,06,14,04,12.00
2015,05,06,14,05,12.10
2015,05,06,14,06,12.20
2015,05,06,14,07,12.30
2015,05,06,14,08,12.20
2015,05,06,14,09,12.20
2015,05,06,14,10,12.20
2015,05,06,14,11,12.20
2015,05,06,14,12,12.10
2015,05,06,14,13,12.00
2015,05,06,14,14,11.90
2015,05,06,14,15,11.90
2015,05,06,14,16,11.80
2015,05,06,14,17,11.90
2015,05,06,14,18,12.00
2015,05,06,14,19,12.00
2015,05,06,14,20,12.10
2015,05,06,14,21,12.20
2015,05,06,14,22,12.10
2015,05,06,14,23,12.10
2015,05,06,14,24,12.00
2015,05,06,14,25,12.00
2015,05,06,14,26,12.00
2015,05,06,14,27,11.90
2015,05,06,14,28,11.80
2015,05,06,14,29,11.80
2015,05,06,14,30,11.80
2015,05,06,14,31,11.80
2015,05,06,14,32,11.80
2015,05,06,14,33,11.80
2015,05,06,14,34,11.80
2015,05,06,14,35,11.70
2015,05,06,14,36,11.70
2015,05,06,14,37,11.70
2015,05,06,14,38,11.80
2015,05,06,14,39,11.80
2015,05,06,14,40,11.80
2015,05,06,14,41,11.80
2015,05,06,14,42,11.80
2015,05,06,14,43,11.80
2015,05,06,14,44,11.90
2015,05,06,14,45,11.80
2015,05,06,14,46,11.80
2015,05,06,14,47,11.80
2015,05,06,14,48,11.80
2015,05,06,14,49,11.70
2015,05,06,14,50,11.70
2015,05,06,14,51,11.60
2015,05,06,14,52,11.60
2015,05,06,14,53,11.60
2015,05,06,14,54,11.60
2015,05,06,14,55,11.60
2015,05,06,14,56,11.60
2015,05,06,14,57,11.60
2015,05,06,14,58,11.60
2015,05,06,14,59,11.60
2015,05,06,15,00,11.60
2015,05,06,15,01,11.60
2015,05,06,15,02,11.60
2015,05,06,15,03,11.60
2015,05,06,15,04,11.60
2015,05,06,15,05,11.60
2015,05,06,15,06,11.60
2015,05,06,15,07,11.70
2015,05,06,15,08,11.80
2015,05,06,15,09,11.80
2015,05,06,15,10,11.80
2015,05,06,15,11,11.80
2015,05,06,15,12,11.80
2015,05,06,15,13,11.70
2015,05,06,15,14,11.70
2015,05,06,15,15,11.70
2015,05,06,15,16,11.80
2015,05,06,15,17,11.80
2015,05,06,15,18,11.90
2015,05,06,15,19,11.90
2015,05,06,15,20,12.10
2015,05,06,15,21,12.10
2015,05,06,15,22,12.10
2015,05,06,15,23,12.30
2015,05,06,15,24,12.40
2015,05,06,15,25,12.50
2015,05,06,15,26,12.50
2015,05,06,15,27,12.50
2015,05,06,15,28,12.50
2015,05,06,15,29,12.60
2015,05,06,15,30,12.50
2015,05,06,15,31,12.50
2015,05,06,15,32,12.50
2015,05,06,15,33,12.40
2015,05,06,15,34,12.40
2015,05,06,15,35,12.30
2015,05,06,15,36,12.30
2015,05,06,15,37,12.30
2015,05,06,15,38,12.20
2015,05,06,15,39,12.10
2015,05,06,15,40,12.00
2015,05,06,15,41,12.00
2015,05,06,15,42,12.00
2015,05,06,15,43,12.00
2015,05,06,15,44,12.00
2015,05,06,15,45,12.10
2015,05,06,15,46,12.10
2015,05,06,15,47,12.10
2015,05,06,15,48,12.10
2015,05,06,15,49,12.20
2015,05,06,15,50,12.10
2015,05,06,15,51,12.00
2015,05,06,15,52,12.00
2015,05,06,15,53,11.90
2015,05,06,15,54,11.80
2015,05,06,15,55,11.80
2015,05,06,15,56,11.80
2015,05,06,15,57,11.80
2015,05,06,15,58,11.80
2015,05,06,15,59,11.80
2015,05,06,16,00,11.90
2015,05,06,16,01,11.90
2015,05,06,16,02,12.00
2015,05,06,16,03,11.90
2015,05,06,16,04,11.90
2015,05,06,16,05,11.90
2015,05,06,16,06,11.80
2015,05,06,16,07,11.90
2015,05,06,16,08,11.90
2015,05,06,16,09,11.90
2015,05,06,16,10,12.00
2015,05,06,16,11,12.10
2015,05,06,16,12,12.10
2015,05,06,16,13,12.10
2015,05,06,16,14,12.10
2015,05,06,16,15,12.10
2015,05,06,16,16,12.10
2015,05,06,16,17,12.10
2015,05,06,16,18,12.20
2015,05,06,16,19,12.30
2015,05,06,16,20,12.30
2015,05,06,16,21,12.20
2015,05,06,16,22,12.20
2015,05,06,16,23,12.20
2015,05,06,16,24,12.20
2015,05,06,16,25,12.20
2015,05,06,16,26,12.10
2015,05,06,16,27,12.10
2015,05,06,16,28,12.10
2015,05,06,16,29,12.10
2015,05,06,16,30,12.10
2015,05,06,16,31,12.20
2015,05,06,16,32,12.20
2015,05,06,16,33,12.30
2015,05,06,16,34,12.30
2015,05,06,16,35,12.30
2015,05,06,16,36,12.30
2015,05,06,16,37,12.30
2015,05,06,16,38,12.30
2015,05,06,16,39,12.30
2015,05,06,16,40,12.40
2015,05,06,16,41,12.40
2015,05,06,16,42,12.40
2015,05,06,16,43,12.50
2015,05,06,16,44,12.50
2015,05,06,16,45,12.50
2015,05,06,16,46,12.50
2015,05,06,16,47,12.50
2015,05,06,16,48,12.50
2015,05,06,16,49,12.40
2015,05,06,16,50,12.40
2015,05,06,16,51,12.40
2015,05,06,16,52,12.30
2015,05,06,16,53,12.30
2015,05,06,16,54,12.20
2015,05,06,16,55,12.20
2015,05,06,16,56,12.20
2015,05,06,16,57,12.20
2015,05,06,16,58,12.20
2015,05,06,16,59,12.20
2015,05,06,17,00,12.20
2015,05,06,17,01,12.20
2015,05,06,17,02,12.20
2015,05,06,17,03,12.20
2015,05,06,17,04,12.10
2015,05,06,17,05,12.20
2015,05,06,17,06,12.20
2015,05,06,17,07,12.20
2015,05,06,17,08,12.20
2015,05,06,17,09,12.20
2015,05,06,17,10,12.20
2015,05,06,17,11,12.30
2015,05,06,17,12,12.30
2015,05,06,17,13,12.40
2015,05,06,17,14,12.50
2015,05,06,17,15,12.50
2015,05,06,17,16,12.60
2015,05,06,17,17,12.70
2015,05,06,17,18,12.80
2015,05,06,17,19,12.80
2015,05,06,17,20,12.80
2015,05,06,17,21,12.80
2015,05,06,17,22,12.80
2015,05,06,17,23,12.80
2015,05,06,17,24,12.80
2015,05,06,17,25,12.70
2015,05,06,17,26,12.60
2015,05,06,17,27,12.60
2015,05,06,17,28,12.50
2015,05,06,17,29,12.50
2015,05,06,17,30,12.50
2015,05,06,17,31,12.40
2015,05,06,17,32,12.40
2015,05,06,17,33,12.30
2015,05,06,17,34,12.30
2015,05,06,17,35,12.30
2015,05,06,17,36,12.30
2015,05,06,17,37,12.30
2015,05,06,17,38,12.30
2015,05,06,17,39,12.30
2015,05,06,17,40,12.30
2015,05,06,17,41,12.30
2015,05,06,17,42,12.30
2015,05,06,17,43,12.30
2015,05,06,17,44,12.30
2015,05,06,17,45,12.30
2015,05,06,17,46,12.30
2015,05,06,17,47,12.40